Previsão horária em Celestynow

Hoje, 25 Julho, Domingo

Tempo Temperatura Precipitação Vento Pressão Humidade
00:00 +20°C° 0 mm 3 m/s 747 mmHg 66%
01:00 +20°C° 0 mm 3 m/s 747 mmHg 65%
02:00 +20°C° 0 mm 3 m/s 747 mmHg 67%
03:00 +19°C° 0 mm 3 m/s 747 mmHg 70%
04:00 +19°C° 0 mm 3 m/s 746 mmHg 72%
05:00 +20°C° 0 mm 3 m/s 746 mmHg 70%
06:00 +21°C° 0 mm 3 m/s 746 mmHg 68%
07:00 +22°C° 0 mm 3 m/s 747 mmHg 69%
08:00 +24°C° 0 mm 3 m/s 747 mmHg 63%
09:00 +26°C° 0 mm 3 m/s 747 mmHg 57%
10:00 +28°C° 0 mm 3 m/s 747 mmHg 52%
11:00 +28°C° 0 mm 3 m/s 747 mmHg 50%
12:00 +29°C° 0 mm 3 m/s 747 mmHg 48%
13:00 +29°C° 0 mm 4 m/s 746 mmHg 46%
14:00 +28°C° 0 mm 3 m/s 746 mmHg 51%
15:00 +27°C° 0 mm 3 m/s 746 mmHg 56%
16:00 +26°C° 0 mm 3 m/s 746 mmHg 60%
17:00 +25°C° 0.1 mm 2 m/s 746 mmHg 65%
18:00 +24°C° 0.1 mm 2 m/s 746 mmHg 70%
19:00 +23°C° 0.1 mm 1 m/s 746 mmHg 75%
20:00 +23°C° 0 mm 2 m/s 746 mmHg 74%
21:00 +21°C° 0 mm 2 m/s 746 mmHg 72%
22:00 +21°C° 0 mm 3 m/s 746 mmHg 71%
23:00 +21°C° 0 mm 3 m/s 746 mmHg 71%

Amanhã, 26 Julho, Segunda-feira

Tempo Temperatura Precipitação Vento Pressão Humidade
00:00 +21°C° 0 mm 3 m/s 746 mmHg 71%
01:00 +21°C° 0 mm 4 m/s 746 mmHg 71%
02:00 +20°C° 0 mm 4 m/s 745 mmHg 74%
03:00 +19°C° 0 mm 3 m/s 745 mmHg 78%
04:00 +19°C° 0 mm 3 m/s 745 mmHg 81%
05:00 +20°C° 0 mm 3 m/s 745 mmHg 78%
06:00 +21°C° 0 mm 3 m/s 745 mmHg 74%
07:00 +22°C° 0 mm 4 m/s 745 mmHg 71%
08:00 +24°C° 0 mm 3 m/s 745 mmHg 66%
09:00 +26°C° 0 mm 3 m/s 745 mmHg 62%
10:00 +27°C° 0 mm 3 m/s 745 mmHg 57%
11:00 +28°C° 0.1 mm 3 m/s 745 mmHg 57%
12:00 +28°C° 0.1 mm 4 m/s 745 mmHg 56%
13:00 +29°C° 0.1 mm 4 m/s 745 mmHg 56%
14:00 +28°C° 0.2 mm 3 m/s 745 mmHg 57%
15:00 +28°C° 0.2 mm 3 m/s 745 mmHg 59%
16:00 +28°C° 0.2 mm 3 m/s 745 mmHg 60%
17:00 +26°C° 0.9 mm 3 m/s 745 mmHg 68%
18:00 +24°C° 0.9 mm 3 m/s 745 mmHg 76%
19:00 +22°C° 0.9 mm 3 m/s 745 mmHg 85%
20:00 +21°C° 0.2 mm 3 m/s 745 mmHg 87%
21:00 +21°C° 0.2 mm 2 m/s 745 mmHg 88%
22:00 +20°C° 0.2 mm 2 m/s 745 mmHg 90%
23:00 +20°C° 0 mm 2 m/s 745 mmHg 90%

Depois de amanhã, 27 Julho, Terça-feira

Tempo Temperatura Precipitação Vento Pressão Humidade
00:00 +20°C° 0 mm 2 m/s 745 mmHg 90%
01:00 +19°C° 0 mm 2 m/s 745 mmHg 90%
02:00 +19°C° 0 mm 3 m/s 745 mmHg 89%
03:00 +19°C° 0 mm 3 m/s 745 mmHg 88%
04:00 +19°C° 0 mm 3 m/s 745 mmHg 87%
05:00 +20°C° 0 mm 3 m/s 745 mmHg 83%
06:00 +21°C° 0 mm 2 m/s 745 mmHg 79%
07:00 +23°C° 0 mm 2 m/s 746 mmHg 75%
08:00 +24°C° 0 mm 3 m/s 746 mmHg 73%
09:00 +25°C° 0 mm 3 m/s 746 mmHg 70%
10:00 +26°C° 0 mm 4 m/s 746 mmHg 67%
11:00 +26°C° 0 mm 4 m/s 746 mmHg 65%
12:00 +27°C° 0 mm 4 m/s 747 mmHg 62%
13:00 +28°C° 0 mm 4 m/s 747 mmHg 60%
14:00 +28°C° 0.1 mm 4 m/s 747 mmHg 58%
15:00 +28°C° 0.1 mm 3 m/s 747 mmHg 57%
16:00 +28°C° 0.1 mm 3 m/s 747 mmHg 55%
17:00 +27°C° 0.1 mm 3 m/s 746 mmHg 59%
18:00 +26°C° 0.1 mm 2 m/s 746 mmHg 64%
19:00 +25°C° 0.1 mm 2 m/s 746 mmHg 68%
20:00 +25°C° 0 mm 2 m/s 746 mmHg 68%
21:00 +24°C° 0 mm 2 m/s 747 mmHg 67%
22:00 +23°C° 0 mm 2 m/s 747 mmHg 67%
23:00 +23°C° 0 mm 2 m/s 747 mmHg 67%

28 Julho, Quarta-feira

Tempo Temperatura Precipitação Vento Pressão Humidade
00:00 +21°C° 0 mm 2 m/s 747 mmHg 66%
01:00 +21°C° 0 mm 2 m/s 747 mmHg 66%
02:00 +21°C° 0 mm 2 m/s 747 mmHg 66%
03:00 +20°C° 0 mm 2 m/s 747 mmHg 66%
04:00 +20°C° 0 mm 2 m/s 747 mmHg 65%
05:00 +21°C° 0 mm 2 m/s 747 mmHg 64%
06:00 +23°C° 0 mm 2 m/s 747 mmHg 62%
07:00 +25°C° 0 mm 2 m/s 747 mmHg 60%
08:00 +26°C° 0 mm 2 m/s 747 mmHg 57%
09:00 +27°C° 0 mm 3 m/s 747 mmHg 54%
10:00 +28°C° 0 mm 3 m/s 747 mmHg 51%
11:00 +29°C° 0 mm 3 m/s 747 mmHg 49%
12:00 +29°C° 0 mm 3 m/s 747 mmHg 46%
13:00 +30°C° 0 mm 2 m/s 747 mmHg 44%
14:00 +29°C° 0 mm 3 m/s 747 mmHg 47%
15:00 +29°C° 0 mm 3 m/s 747 mmHg 50%
16:00 +28°C° 0 mm 4 m/s 746 mmHg 53%
17:00 +26°C° 0 mm 4 m/s 747 mmHg 58%
18:00 +25°C° 0 mm 4 m/s 747 mmHg 63%
19:00 +22°C° 0 mm 4 m/s 747 mmHg 68%
20:00 +21°C° 0.3 mm 4 m/s 747 mmHg 74%
21:00 +20°C° 0.3 mm 3 m/s 747 mmHg 80%
22:00 +19°C° 0.3 mm 3 m/s 747 mmHg 86%
23:00 +19°C° 0.8 mm 3 m/s 747 mmHg 88%

29 Julho, Quinta-feira

Tempo Temperatura Precipitação Vento Pressão Humidade
00:00 +19°C° 0.8 mm 3 m/s 748 mmHg 90%
01:00 +19°C° 0.8 mm 2 m/s 748 mmHg 92%
02:00 +18°C° 0 mm 2 m/s 748 mmHg 93%
03:00 +18°C° 0 mm 2 m/s 748 mmHg 93%
04:00 +17°C° 0 mm 2 m/s 748 mmHg 94%
05:00 +18°C° 0 mm 3 m/s 748 mmHg 90%
06:00 +19°C° 0 mm 3 m/s 748 mmHg 86%
07:00 +20°C° 0 mm 3 m/s 748 mmHg 82%
08:00 +21°C° 0 mm 3 m/s 749 mmHg 75%
09:00 +24°C° 0 mm 3 m/s 749 mmHg 68%
10:00 +25°C° 0 mm 3 m/s 749 mmHg 60%
11:00 +26°C° 0 mm 2 m/s 748 mmHg 56%
12:00 +27°C° 0 mm 2 m/s 748 mmHg 52%
13:00 +28°C° 0 mm 2 m/s 748 mmHg 48%
14:00 +28°C° 0 mm 2 m/s 748 mmHg 47%
15:00 +28°C° 0 mm 2 m/s 747 mmHg 45%
16:00 +29°C° 0 mm 1 m/s 747 mmHg 44%
17:00 +28°C° 0 mm 2 m/s 747 mmHg 48%
18:00 +27°C° 0 mm 2 m/s 747 mmHg 52%
19:00 +25°C° 0 mm 2 m/s 747 mmHg 57%
20:00 +25°C° 0 mm 2 m/s 746 mmHg 57%
21:00 +24°C° 0 mm 2 m/s 746 mmHg 57%
22:00 +24°C° 0 mm 3 m/s 746 mmHg 57%
23:00 +22°C° 0 mm 3 m/s 746 mmHg 58%

30 Julho, Sexta-feira

Tempo Temperatura Precipitação Vento Pressão Humidade
00:00 +22°C° 0 mm 3 m/s 746 mmHg 59%
01:00 +21°C° 0 mm 3 m/s 746 mmHg 61%
02:00 +21°C° 0 mm 3 m/s 745 mmHg 65%
03:00 +20°C° 0 mm 3 m/s 745 mmHg 69%
04:00 +20°C° 0 mm 3 m/s 745 mmHg 73%
05:00 +21°C° 0 mm 4 m/s 745 mmHg 70%
06:00 +22°C° 0 mm 4 m/s 745 mmHg 66%
07:00 +25°C° 0 mm 5 m/s 745 mmHg 63%
08:00 +26°C° 0 mm 5 m/s 745 mmHg 59%
09:00 +28°C° 0 mm 5 m/s 744 mmHg 54%
10:00 +29°C° 0 mm 5 m/s 744 mmHg 50%
11:00 +30°C° 0 mm 5 m/s 743 mmHg 46%
12:00 +32°C° 0 mm 5 m/s 743 mmHg 43%
13:00 +33°C° 0 mm 5 m/s 743 mmHg 40%
14:00 +32°C° 0 mm 5 m/s 743 mmHg 44%
15:00 +30°C° 0 mm 5 m/s 743 mmHg 48%
16:00 +29°C° 0 mm 5 m/s 743 mmHg 52%
17:00 +28°C° 0 mm 5 m/s 742 mmHg 59%
18:00 +27°C° 0 mm 5 m/s 742 mmHg 66%
19:00 +25°C° 0 mm 4 m/s 742 mmHg 72%
20:00 +23°C° 0.2 mm 4 m/s 743 mmHg 76%
21:00 +22°C° 0.2 mm 3 m/s 743 mmHg 81%
22:00 +21°C° 0.2 mm 2 m/s 743 mmHg 85%
23:00 +20°C° 0 mm 2 m/s 743 mmHg 85%
Mostrar mais

Necessitamos do seu Consentimento

A Meteoprog e os seus Fornecedores de Serviços podem armazenar e aceder a dados pessoais como cookies, identificadores do dispositivo ou outras tecnologias semelhantes existentes no seu dispositivo e processar estes dados para personalizar conteúdos e anúncios, assim como funcionalidades nas redes sociais e análise de tráfego.

  • Armazenar e/ou aceder a informações no seu dispositivo

    Os cookies, identificadores do dispositivo ou outras informações podem ser armazenados ou acedidos no seu dispositivo, para os fins acima indicados.

  • Anúncios e conteúdos personalizados, medição de anúncios e conteúdos, dados sobre o público-alvo e desenvolvimento de produtos

    Os anúncios e os conteúdos podem ser personalizados com base num perfil. Podem ser adicionados dados adicionais para uma maior personalização dos anúncios e dos conteúdos. A eficácia dos anúncios e dos conteúdos pode ser medida. Podem ser obtidas informações sobre o público que visualizou os anúncios e os conteúdos. Estes dados podem ser usados para desenvolver ou melhorar sistemas, softwares ou a experiência do utilizador.

Ao clicar em "Eu concordo”, permitirá o uso de cookies, identificadores do dispositivo e web beacons mencionados ou outras tecnologias semelhantes. As configurações do navegador do seu dispositivo podem ser alteradas.

Para certos fins, podem ser invocados interesses legítimos ao invés de consentimento. Pode ler mais informação sobre este assunto na nossa Política de Privacidade e Cookies.